GW2240 Weather Reports


Display with metric or nautical units.
time (UTC)temp
F
wind
direction
speed
MPH
gust
MPH
rain 1hr
in
rain 24hr
in
rain mn
in
humidity
%
barometer
mb
20260509211601 83 24 0.0 0.0 0.00 0.00 0.00 80 1007.7
20260509210052 83 24 0.0 0.0 0.00 0.00 0.00 80 1007.9
20260509204548 85 24 0.0 0.0 0.00 0.00 0.00 73 1008.1
20260509203047 88 338 0.0 0.0 0.00 0.00 0.00 70 1008.2
20260509201547 85 183 0.0 0.0 0.00 0.00 0.00 75 1008.4
20260509200052 84 137 0.0 0.0 0.00 0.00 0.00 78 1008.6
20260509194542 86 144 0.0 0.0 0.00 0.00 0.00 74 1008.8
20260509193041 87 258 0.0 0.0 0.00 0.00 0.00 71 1008.8
20260509191540 86 164 0.0 0.0 0.00 0.00 0.00 71 1009.0
20260509190040 86 176 0.0 0.0 0.00 0.00 0.00 75 1009.3
20260509184535 85 202 0.0 0.0 0.00 0.00 0.00 78 1009.6
20260509183040 83 340 0.0 0.0 0.00 0.00 0.00 81 1009.7
20260509181542 82 22 0.0 0.0 0.00 0.00 0.00 81 1010.2
20260509180030 83 3 0.0 0.0 0.00 0.00 0.00 80 1010.4
20260509174532 81 3 0.0 0.0 0.00 0.00 0.00 83 1010.5
20260509173027 81 3 0.0 0.0 0.00 0.00 0.00 81 1010.5
20260509171527 82 19 0.0 2.0 0.00 0.00 0.00 81 1010.4
20260509170023 81 11 0.0 0.0 0.00 0.00 0.00 84 1010.4
20260509164522 81 126 0.0 0.0 0.00 0.00 0.00 83 1010.4
20260509163028 79 116 0.0 0.0 0.00 0.00 0.00 89 1010.2
20260509161516 78 116 0.0 0.0 0.00 0.00 0.00 91 1010.6
20260509160016 78 97 0.0 0.0 0.00 0.00 0.00 91 1010.8
20260509154512 77 98 0.0 0.0 0.00 0.00 0.00 93 1010.8
20260509153010 77 98 0.0 0.0 0.00 0.00 0.00 93 1010.7
20260509151508 76 19 0.0 0.0 0.00 0.00 0.00 94 1010.8
20260509150012 76 19 0.0 0.0 0.00 0.00 0.00 95 1010.5
20260509144501 75 19 0.0 0.0 0.00 0.00 0.00 95 1010.5
20260509143101 75 19 0.0 0.0 0.00 0.00 0.00 95 1010.4
20260509143002 75 19 0.0 0.0 0.00 0.00 0.00 95 1010.4
20260509141609 75 19 0.0 0.0 0.00 0.00 0.00 95 1010.0
20260509140059 75 19 0.0 0.0 0.00 0.00 0.00 95 1010.1
20260509134557 74 19 0.0 0.0 0.00 0.00 0.00 95 1010.2
20260509133049 74 19 0.0 0.0 0.00 0.00 0.00 95 1010.6
20260509131547 74 19 0.0 0.0 0.00 0.00 0.00 95 1010.8
20260509130042 74 19 0.0 0.0 0.00 0.00 0.00 95 1010.6
20260509124538 73 19 0.0 0.0 0.00 0.00 0.00 95 1010.7
20260509123034 73 19 0.0 0.0 0.00 0.00 0.00 95 1010.7
20260509121535 73 20 0.0 0.0 0.00 0.00 0.00 95 1010.6
20260509120024 73 358 0.0 0.0 0.00 0.00 0.00 95 1010.2
20260509114521 73 358 0.0 0.0 0.00 0.00 0.00 95 1010.0
20260509113017 73 358 0.0 0.0 0.00 0.00 0.00 95 1010.0
20260509111514 73 358 0.0 0.0 0.00 0.00 0.00 95 1009.9
20260509110007 73 358 0.0 0.0 0.00 0.00 0.00 95 1010.1
20260509104503 73 358 0.0 0.0 0.00 0.00 0.00 95 1010.3
20260509103105 73 5 0.0 0.0 0.00 0.00 0.00 95 1010.1
20260509103000 73 5 0.0 0.0 0.00 0.00 0.00 95 1010.2
20260509101558 73 260 0.0 0.0 0.00 0.00 0.00 95 1009.9
20260509100051 73 207 0.0 0.0 0.00 0.00 0.00 95 1009.4
20260509094546 73 207 0.0 0.0 0.00 0.00 0.00 95 1009.3
20260509093052 73 207 0.0 0.0 0.00 0.00 0.00 95 1009.7
20260509091538 73 207 0.0 0.0 0.00 0.00 0.00 95 1009.7
20260509090037 73 207 0.0 0.0 0.00 0.00 0.00 95 1009.9
20260509084543 73 207 0.0 0.0 0.00 0.00 0.00 95 1010.1
20260509083028 73 207 0.0 0.0 0.00 0.00 0.00 95 1010.1
20260509081535 73 207 0.0 0.0 0.00 0.00 0.00 94 1010.0
20260509080029 73 207 0.0 0.0 0.00 0.00 0.00 94 1009.8
20260509074514 73 207 0.0 0.0 0.00 0.00 0.00 94 1009.8
20260509073011 73 207 0.0 0.0 0.00 0.00 0.00 94 1009.7
20260509071506 73 207 0.0 0.0 0.00 0.00 0.00 94 1009.8
20260509070001 73 207 0.0 0.0 0.00 0.00 0.00 95 1009.9
20260509064617 73 207 0.0 0.0 0.00 0.00 0.00 94 1009.9
20260509063058 73 207 0.0 0.0 0.00 0.00 0.00 94 1009.9
20260509061554 73 207 0.0 0.0 0.00 0.00 0.00 94 1010.2
20260509060150 73 207 0.0 0.0 0.00 0.00 0.00 94 1010.4
20260509054646 72 207 0.0 0.0 0.00 0.00 0.00 94 1010.4
20260509053042 72 207 0.0 0.0 0.00 0.00 0.00 94 1010.5
20260509051539 72 207 0.0 0.0 0.00 0.00 0.00 94 1010.5
20260509050032 72 207 0.0 0.0 0.00 0.00 0.00 94 1010.4
20260509044531 72 207 0.0 0.0 0.00 0.00 0.00 94 1010.6
20260509043031 72 207 0.0 0.0 0.00 0.00 0.00 94 1010.4
20260509041532 72 207 0.0 0.0 0.00 0.00 0.00 94 1010.4
20260509040030 72 207 0.0 0.0 0.00 0.00 0.00 94 1010.4
20260509034530 72 202 0.0 0.0 0.00 0.00 0.00 94 1010.1
20260509033029 72 202 0.0 0.0 0.00 0.00 0.00 94 1010.2
20260509031531 72 192 0.0 0.0 0.00 0.00 0.00 94 1010.2
20260509030028 73 204 0.0 0.0 0.00 0.00 0.00 94 1010.0
20260509024527 73 202 0.0 0.0 0.00 0.00 0.00 94 1009.8
20260509023026 73 206 0.0 0.0 0.00 0.00 0.00 93 1009.7
20260509021526 73 208 0.0 0.0 0.00 0.00 0.00 93 1009.6
20260509020032 73 188 0.0 0.0 0.00 0.00 0.00 93 1009.6
20260509014537 74 202 0.0 0.0 0.00 0.00 0.00 92 1009.4
20260509013024 74 202 0.0 0.0 0.00 0.00 0.00 92 1009.7
20260509011523 74 196 0.0 0.0 0.00 0.00 0.00 91 1009.2
20260509010022 74 200 0.0 0.0 0.00 0.00 0.00 90 1009.1
20260509004523 74 200 0.0 0.0 0.00 0.00 0.00 90 1009.0
20260509003029 75 208 0.0 3.0 0.00 0.00 0.00 89 1009.0
20260509001520 75 317 0.0 0.0 0.00 0.00 0.00 89 1009.3
20260509000020 75 215 0.0 2.0 0.00 0.00 0.00 89 1009.2
20260508234519 75 198 0.0 0.0 0.00 0.00 0.00 88 1009.3
20260508233018 76 198 0.0 0.0 0.00 0.00 0.00 88 1009.4
20260508231517 76 201 0.0 0.0 0.00 0.00 0.00 88 1009.4
20260508230017 76 188 0.0 0.0 0.00 0.00 0.00 88 1009.3
20260508224516 76 159 0.0 0.0 0.00 0.00 0.00 88 1009.4
20260508223023 77 202 0.0 0.0 0.00 0.00 0.00 87 1009.2
20260508221514 76 204 0.0 0.0 0.00 0.00 0.00 88 1009.4
20260508220014 76 204 0.0 0.0 0.00 0.00 0.00 87 1009.7
20260508214513 77 212 0.0 0.0 0.00 0.00 0.00 86 1009.4
20260508213011 77 3 0.0 0.0 0.00 0.00 0.00 85 1009.6